Location: Cassano d�Adda
(45.5333°N, 9.5167°E)
Time: 22:51:34
(UTC+00:00)

Okean O Rocket - Pass Details

Date: 08 December 2019
Orbit: 624 x 644 km, 98.2° (Epoch: 17 January)

Event Time Altitude Azimuth Distance (km) Brightness Sun altitude
Rises 16:08:21 0° 171° (S) 2,896 5.2 -5.4°
Reaches altitude 10° 16:10:32 10° 173° (S) 1,992 4.4 -5.7°
Maximum altitude 16:14:51 70° 257° (WSW) 665 2.0 -6.4°
Drops below altitude 10° 16:19:12 10° 342° (NNW) 2,006 4.1 -7.1°
Sets 16:21:25 0° 345° (NNW) 2,918 4.9 -7.4°
